EW5303 Weather Reports


time (UTC)temp
C
wind
direction
speed
KPH
gust
KPH
rain 1hr
cm
rain 24hr
cm
rain mn
cm
humidity
%
barometer
mb
20260510140006 22 271 3.2 8.0 0.00 0.00 0.00 63 1014.3
20260510134506 22 99 3.2 14.5 0.00 0.00 0.00 66 1014.2
20260510133027 21 296 0.0 6.4 0.00 0.00 0.00 70 1014.4
20260510131506 20 249 0.0 6.4 0.00 0.00 0.00 71 1014.5
20260510130006 20 72 0.0 3.2 0.00 0.00 0.00 78 1014.4
20260510124527 18 285 0.0 3.2 0.00 0.00 0.00 87 1014.2
20260510123027 16 0 0.0 0.0 0.00 0.00 0.00 93 1014.1
20260510121506 15 0 0.0 0.0 0.00 0.00 0.00 97 1013.9
20260510120006 13 0 0.0 0.0 0.00 0.00 0.00 97 1013.6
20260510114527 12 0 0.0 0.0 0.00 0.00 0.00 97 1013.4
20260510113006 11 0 0.0 0.0 0.00 0.00 0.00 97 1013.2
20260510111506 11 0 0.0 0.0 0.00 0.00 0.00 97 1012.9
20260510110006 10 0 0.0 0.0 0.00 0.00 0.00 96 1012.7
20260510104506 11 0 0.0 0.0 0.00 0.00 0.00 96 1012.4
20260510103006 10 0 0.0 0.0 0.00 0.00 0.00 96 1012.3
20260510101506 11 0 0.0 0.0 0.00 0.00 0.00 96 1012.3
20260510100027 11 0 0.0 0.0 0.00 0.00 0.00 96 1012.3
20260510094527 11 0 0.0 0.0 0.00 0.00 0.00 96 1012.2
20260510093006 11 0 0.0 0.0 0.00 0.00 0.00 96 1012.1
20260510091506 11 285 0.0 3.2 0.00 0.00 0.00 96 1011.8
20260510090026 11 285 0.0 3.2 0.00 0.00 0.00 96 1011.4
20260510084505 12 0 0.0 0.0 0.00 0.00 0.00 96 1011.2
20260510083005 12 0 0.0 0.0 0.00 0.00 0.00 96 1011.1
20260510081505 12 79 0.0 3.2 0.00 0.00 0.00 96 1011.0
20260510080006 12 0 0.0 0.0 0.00 0.00 0.00 95 1010.9
20260510074505 12 0 0.0 0.0 0.00 0.00 0.00 95 1011.0
20260510073026 12 0 0.0 0.0 0.00 0.00 0.00 95 1011.0
20260510071505 12 0 0.0 0.0 0.00 0.00 0.00 95 1011.0
20260510070005 13 0 0.0 0.0 0.00 0.00 0.00 95 1011.0
20260510064505 13 0 0.0 0.0 0.00 0.00 0.00 95 1011.0
20260510063005 13 0 0.0 0.0 0.00 0.00 0.00 95 1011.1
20260510061526 13 0 0.0 0.0 0.00 0.00 0.00 94 1011.1
20260510060006 13 0 0.0 0.0 0.00 0.00 0.00 94 1011.2
20260510054505 14 0 0.0 0.0 0.00 0.00 0.00 93 1011.3
20260510053005 14 0 0.0 0.0 0.00 0.00 0.00 93 1011.3
20260510051526 15 0 0.0 0.0 0.00 0.00 0.00 92 1011.5
20260510050005 15 0 0.0 0.0 0.00 0.00 0.00 92 1011.7
20260510044505 15 0 0.0 0.0 0.00 0.00 0.00 90 1011.7
20260510043005 16 0 0.0 0.0 0.00 0.00 0.00 90 1011.6
20260510041505 16 93 0.0 3.2 0.00 0.00 0.00 90 1011.4
20260510034505 16 0 0.0 0.0 0.00 0.00 0.00 88 1011.2
20260510033005 17 0 0.0 0.0 0.00 0.00 0.00 87 1011.0
20260510031526 17 0 0.0 0.0 0.00 0.00 0.00 86 1010.8
20260510030026 17 0 0.0 0.0 0.00 0.00 0.00 85 1010.9
20260510024505 17 0 0.0 0.0 0.00 0.00 0.00 85 1010.9
20260510023004 17 0 0.0 0.0 0.00 0.00 0.00 84 1010.7
20260510021504 18 0 0.0 0.0 0.00 0.00 0.00 83 1010.5
20260510020026 18 0 0.0 0.0 0.00 0.00 0.00 83 1010.2
20260510014504 18 0 0.0 0.0 0.00 0.00 0.00 82 1009.8
20260510013026 18 0 0.0 0.0 0.00 0.00 0.00 81 1009.4
20260510011505 18 0 0.0 0.0 0.00 0.00 0.00 81 1009.0
20260510010005 18 0 0.0 0.0 0.00 0.00 0.00 80 1009.0
20260510004505 19 0 0.0 0.0 0.00 0.00 0.00 78 1008.8
20260510003025 20 0 0.0 0.0 0.00 0.00 0.00 75 1008.6
20260510001504 20 0 0.0 0.0 0.00 0.00 0.00 73 1008.6
20260510000025 21 93 0.0 3.2 0.00 0.00 0.00 71 1008.5
20260509234504 22 0 0.0 0.0 0.00 0.00 0.00 69 1008.3
20260509233004 22 94 0.0 3.2 0.00 0.00 0.00 66 1008.1
20260509231504 23 143 0.0 3.2 0.00 0.00 0.00 63 1008.2
20260509230004 24 104 0.0 6.4 0.00 0.00 0.00 61 1008.0
20260509224504 25 56 0.0 6.4 0.00 0.00 0.00 61 1008.2
20260509223004 23 28 0.0 8.0 0.00 0.00 0.00 61 1008.3
20260509221504 24 258 0.0 6.4 0.00 0.00 0.00 59 1008.4
20260509220025 25 277 3.2 8.0 0.00 0.00 0.00 55 1008.3
20260509214504 26 264 0.0 6.4 0.00 0.00 0.00 54 1007.9
20260509213004 25 293 0.0 6.4 0.00 0.00 0.00 57 1007.8
20260509211525 26 269 0.0 14.5 0.00 0.00 0.00 52 1007.7
20260509210025 26 197 3.2 14.5 0.00 0.00 0.00 54 1007.5
20260509204525 25 101 3.2 16.1 0.00 0.00 0.00 54 1007.5
20260509203025 24 333 0.0 11.3 0.00 0.00 0.00 59 1007.7
20260509201504 24 262 3.2 19.3 0.00 0.00 0.00 58 1007.7
20260509200004 24 278 3.2 14.5 0.00 0.00 0.00 57 1007.6
20260509194504 25 85 0.0 8.0 0.00 0.00 0.00 58 1007.8
20260509193004 25 174 3.2 8.0 0.00 0.00 0.00 56 1007.8
20260509191503 25 93 3.2 14.5 0.00 0.00 0.00 59 1008.0
20260509190004 25 209 3.2 16.1 0.00 0.00 0.00 53 1008.3
20260509184524 26 260 6.4 16.1 0.00 0.00 0.00 52 1008.5
20260509183024 25 156 3.2 11.3 0.00 0.00 0.00 52 1008.7
20260509181525 25 226 6.4 16.1 0.00 0.00 0.00 52 1008.9
20260509180004 24 200 3.2 16.1 0.00 0.00 0.00 57 1009.3
20260509174503 25 201 3.2 22.5 0.00 0.00 0.00 57 1009.3
20260509173003 24 281 3.2 16.1 0.00 0.00 0.00 57 1009.6
20260509171503 23 267 3.2 22.5 0.00 0.00 0.00 63 1009.8
20260509170003 23 229 3.2 8.0 0.00 0.00 0.00 57 1009.9
20260509164503 23 220 6.4 16.1 0.00 0.00 0.00 59 1010.0
20260509163003 23 272 3.2 14.5 0.00 0.00 0.00 63 1010.2
20260509161503 23 212 3.2 8.0 0.00 0.00 0.00 61 1010.3
20260509160007 23 272 3.2 16.1 0.00 0.00 0.00 63 1010.3
20260509154506 22 248 0.0 11.3 0.00 0.00 0.00 67 1010.4
20260509153027 22 103 0.0 14.5 0.00 0.00 0.00 65 1010.4
20260509151506 22 269 3.2 16.1 0.00 0.00 0.00 65 1010.7
20260509150006 22 97 3.2 14.5 0.00 0.00 0.00 67 1010.9
20260509144506 21 100 3.2 14.5 0.00 0.00 0.00 71 1011.0
20260509143006 20 87 3.2 11.3 0.00 0.00 0.00 73 1010.9
20260509141506 18 230 0.0 8.0 0.00 0.00 0.00 75 1011.4